{"data":{"norad_id":69160,"epoch":"2026-09-20T00:24:34.613856Z","epoch_age_seconds":64902,"freshness":"FRESH","line1":"1 69160U 26111N   26263.01706729  .00022767  00000+0  68336-3 0  9996","line2":"2 69160  53.1570  68.0392 0000917  90.3940 269.7168 15.34379087 18820","mean_motion":15.34379087,"eccentricity":9.17e-5,"inclination_deg":53.157,"raan_deg":68.0392,"arg_perigee_deg":90.394,"mean_anomaly_deg":269.7168,"bstar":0.00068336,"rev_number":1882,"period_min":93.849037190377,"perigee_km":462.13808800634,"apogee_km":463.39270950628,"semimajor_km":6840.9023987563,"source":"CELESTRAK","updated_at":"2026-09-20T09:00:44.091791Z"}}